Regional Weather Roundup
Issued by NWS

Home | Current Version | Previous Version | Graphics & Text | Print | Product List | Glossary On
Versions: 1 2 3 4 5 6 7 8 9 10 11 12 13 14 15 16 17 18 19 20 21 22 23 24 25 26 27 28 29 30 31 32 33 34 35 36 37 38 39 40 41 42 43 44 45 46 47 48 49 50
000
ASUS43 KBIS 240010
RWRND
NORTH DAKOTA REGIONAL WEATHER ROUNDUP
NATIONAL WEATHER SERVICE EASTERN NORTH DAKOTA/GRAND FORKS ND
700 PM CDT MON APR 23 2018

  NOTE: "FAIR" INDICATES FEW OR NO CLOUDS BELOW 12,000 FEET WITH NO
  SIGNIFICANT WEATHER AND/OR OBSTRUCTIONS TO VISIBILITY.

NDZ001>003-009>011-017-240100-
...NORTHWEST NORTH DAKOTA...

CITY           SKY/WX    TMP DP  RH WIND       PRES   REMARKS
WILLISTON      CLOUDY    51  19  28 N20       30.32R
6HR MIN TEMP:  48; 6HR MAX TEMP:  52;

MINOT          CLOUDY    53  34  48 NW13      30.24S
MINOT AFB      NOT AVBL
$$

NDZ018>021-031>035-040>046-240100-
...SOUTHWEST NORTH DAKOTA...

CITY           SKY/WX    TMP DP  RH WIND       PRES   REMARKS
BISMARCK       CLOUDY    58  32  37 N16G22    30.17R
DICKINSON      CLOUDY    45  32  60 N22G33    30.21R
GARRISON         N/A     49  36  61 N13       30.24R
HETTINGER      CLOUDY    50  32  50 N31G38    30.13R
$$

NDZ004>008-012>016-024-026-027-054-240100-
...NORTHEAST NORTH DAKOTA...

CITY           SKY/WX    TMP DP  RH WIND       PRES   REMARKS
GRAND FORKS    PTSUNNY   57  37  47 NE7       30.16S
GRAND FORKS AF NOT AVBL
DEVILS LAKE    FAIR      56  35  45 N14       30.20R
$$

NDZ022-023-025-028>030-036>039-047>053-240100-
...SOUTHEAST NORTH DAKOTA...

CITY           SKY/WX    TMP DP  RH WIND       PRES   REMARKS
JAMESTOWN      CLOUDY    59  37  44 NE12      30.15S
FARGO          FAIR      63  40  42 N12       30.14S
WAHPETON       FAIR      64  45  48 N12       30.12S
$$




USA.gov is the U.S. government's official web portal to all federal, state and local government web resources and services.